Location: Glion
(46.4330°N, 6.9246°E)
Time: 21:31:42
(UTC+00:00)

Cosmos 1470 Rocket - Pass Details

Date: 03 March 2021
Orbit: 603 x 634 km, 82.5° (Epoch: 22 April)

Event Time Altitude Azimuth Distance (km) Brightness Sun altitude
Rises 18:34:56 0° 190° (S) 2,916 7.1 -13.5°
Reaches altitude 10° 18:37:10 10° 192° (SSW) 2,011 6.3 -13.8°
Maximum altitude 18:41:38 80° 278° (W) 648 3.7 -14.6°
Drops below altitude 10° 18:46:07 10° 7° (N) 2,015 6.2 -15.4°
Sets 18:48:21 0° 9° (N) 2,923 7.0 -15.8°
